Terminal Aerodrome Forecast
Issued by NWS

Home | Current Version | Previous Version | Text Only | Print | Product List | Glossary On
Versions: 1 2 3 4 5 6 7 8 9 10 11 12 13
000
FTUS45 KSLC 101744
TAFPVU
TAF
KPVU 101744Z 1018/1118 13007KT P6SM VCSH SCT050 BKN070
     FM102000 16005KT P6SM -RA BKN050 BKN080
     FM110500 30012KT 4SM -RASN BKN030 OVC050
     FM110800 31009KT P6SM SCT030 BKN050
      AMD LTD TO CLD VIS AND WIND=

USA.gov is the U.S. government's official web portal to all federal, state and local government web resources and services.